Location: Fort Wayne
(41.1310°N, 85.1290°W)
Time: 05:42:41
(UTC-04:00)

Cosmos 1980 - Visible Passes

Search period start: 31 July 2016 00:00
Search period end: 10 August 2016 00:00
Orbit: 841 x 846 km, 71.0° (Epoch: 29 July)

Date Brightness Start Highest point End Pass type
(mag) Time Alt. Az. Time Alt. Az. Time Alt. Az.
05 Aug 4.4 05:55:30 10° S 06:00:59 56° ESE 06:06:30 10° NNE visible
06 Aug 4.4 05:41:00 10° S 05:46:28 53° ESE 05:51:56 10° NNE visible
07 Aug 4.5 05:26:31 10° S 05:31:57 51° ESE 05:37:24 10° NNE visible
08 Aug 4.5 05:12:02 10° S 05:17:25 48° ESE 05:22:50 10° NE visible
09 Aug 4.5 04:58:12 13° S 05:02:55 46° ESE 05:08:18 10° NE visible
